Wind_Speed
6 8 8 9 10 9 10 6 8 9 9 8 12 16 15 18 22 22 23 26 27 28 27 27 27 27 26 26 29 32 34 36 37 35 31 31 26 28
8 11 12 13 14 12 8 7 7 9 9 11 12 14 19 22 22 25 25 27 31 31 26 25 26 27 29 30 31 31 34 36 37 36 33 34 31 32
10 11 12 12 14 13 11 10 9 8 8 12 16 19 18 19 22 24 26 27 31 31 27 26 27 29 30 32 33 32 32 34 36 35 35 38 36 36
11 13 14 14 14 14 14 11 12 16 17 13 13 18 22 25 25 26 27 27 31 31 30 30 31 31 33 32 33 33 33 34 35 35 36 38 37 37
12 12 17 16 16 15 14 13 13 15 18 23 21 19 21 25 27 29 30 32 32 33 34 33 34 36 36 37 36 36 33 35 37 35 36 36 39 39
11 12 14 16 19 22 20 20 19 21 22 25 28 28 26 28 30 34 36 39 40 37 37 37 31 33 33 35 35 35 31 31 32 34 37 39 42 42
12 13 15 17 19 23 27 26 26 25 26 27 26 32 36 35 33 35 37 42 45 46 43 45 36 33 32 33 37 36 31 30 31 34 38 38 40 42
11 11 11 14 17 20 24 28 31 28 24 27 31 34 38 40 38 40 43 47 51 51 45 41 41 40 34 35 31 32 33 29 30 33 35 36 38 38
7 9 8 9 13 17 18 23 29 33 33 33 33 35 38 42 44 46 47 48 51 52 51 52 55 48 40 32 34 31 34 30 31 31 34 34 35 36
13 14 15 14 15 15 17 20 24 28 31 35 36 36 40 43 47 50 49 48 51 51 54 56 60 56 48 35 34 31 32 31 30 30 32 32 35 35
18 19 20 21 21 22 23 24 26 26 32 36 40 44 47 49 48 45 48 50 53 56 56 60 61 60 60 52 29 29 29 29 28 29 31 31 33 34
25 25 24 24 26 28 31 33 34 34 37 40 43 46 50 53 57 54 54 55 57 59 51 62 63 67 59 36 27 26 27 28 26 27 30 30 33 34
29 30 31 33 35 36 39 42 39 43 45 45 47 53 56 50 47 54 58 63 62 63 63 64 56 51 39 32 31 25 26 27 24 25 28 30 33 34
34 35 35 39 43 45 47 48 48 47 49 50 50 51 56 57 57 66 60 61 67 67 61 63 53 41 35 33 35 27 25 26 23 25 28 28 32 35
39 42 43 44 45 48 49 50 53 57 58 58 55 57 59 62 66 67 69 64 72 70 63 64 50 41 33 29 31 28 24 26 23 25 28 28 32 35
45 46 48 50 53 54 58 59 58 60 62 64 64 61 63 62 65 68 68 70 66 70 71 63 60 46 39 30 30 24 23 25 23 25 27 28 31 35
49 52 54 55 58 59 62 62 61 64 66 65 69 71 72 67 63 66 68 66 72 69 76 62 64 48 34 26 25 21 23 24 23 25 26 27 31 34
55 57 58 60 61 62 64 64 63 64 64 67 71 76 82 77 67 68 69 72 65 65 76 65 48 36 29 29 24 20 23 23 23 26 26 26 30 34
59 62 63 63 65 63 65 67 67 67 63 65 70 69 72 75 72 66 72 80 61 57 45 24 28 23 28 31 20 19 22 21 24 27 25 25 29 33
64 64 65 67 66 67 70 69 65 63 61 59 60 64 73 74 76 79 78 89 75 65 51 21 22 25 28 25 17 19 20 21 25 26 25 26 29 32
64 67 70 69 68 69 65 63 63 62 59 60 62 65 66 68 70 74 62 67 70 73 48 45 35 24 24 21 20 22 20 21 25 24 25 26 29 32
68 70 72 70 70 64 64 64 56 49 56 54 53 55 60 51 78 71 69 88 63 46 41 33 24 24 24 21 21 21 21 22 23 23 25 27 27 31
73 72 72 69 60 64 64 61 51 50 49 50 48 48 45 46 56 43 33 34 34 34 29 22 22 23 21 22 21 21 22 22 22 22 26 27 28 30
Wind_Direction
309 317 331 338 348 336 337 343 347 325 328 329 346 349 352 356 354 355 357 354 354 350 349 348 344 338 332 333 335 334 339 339 337 338 340 341 336 336
297 300 313 331 341 349 331 324 309 315 328 331 326 341 350 353 355 354 353 348 356 359 352 344 343 335 331 329 331 331 334 336 337 341 341 341 337 335
270 277 290 307 321 338 343 340 334 331 325 341 343 340 346 339 340 343 349 348 353 359 354 350 343 333 331 329 328 327 333 336 339 341 342 338 335 334
278 278 285 294 309 324 335 340 331 325 323 319 319 330 339 337 333 336 340 343 343 346 345 342 342 337 332 330 328 328 332 336 342 342 339 334 334 335
281 282 285 300 302 315 320 321 328 328 330 325 325 327 326 327 331 335 333 337 335 333 334 336 339 334 330 331 330 331 329 337 338 337 337 340 338 335
306 301 281 285 298 301 303 302 309 316 318 317 319 323 324 326 325 325 328 329 328 329 334 332 321 325 338 333 329 326 331 334 336 337 342 345 340 337
15 354 327 306 288 298 310 308 311 312 313 312 316 321 319 320 323 320 321 321 322 323 323 329 317 321 321 327 326 324 327 328 332 338 342 344 341 341
21 17 350 335 311 294 297 304 307 314 311 311 312 316 313 314 314 315 318 318 317 319 325 322 320 319 315 322 324 322 322 323 329 337 342 344 343 346
326 339 342 333 325 316 304 298 298 301 305 305 305 307 305 305 307 311 314 315 315 317 318 316 317 325 319 315 320 321 319 323 324 332 339 342 342 342
299 302 303 305 295 289 297 300 301 300 303 301 301 298 297 299 306 309 310 311 311 311 310 315 316 317 323 311 316 318 316 315 318 328 335 338 340 341
292 292 292 298 299 291 280 280 288 295 297 296 294 296 298 299 300 303 306 308 303 305 308 310 315 317 317 316 299 310 306 306 314 324 330 336 337 341
283 287 290 290 290 291 292 288 288 297 289 292 294 296 304 302 301 298 296 297 301 302 310 326 309 311 314 310 297 302 300 301 309 319 326 332 335 336
277 281 285 288 287 284 286 287 292 290 294 292 296 300 299 293 309 313 300 295 299 310 317 312 313 310 322 303 296 295 296 297 303 312 320 329 333 334
278 278 277 281 285 288 287 290 291 290 290 291 294 298 303 308 304 302 294 301 300 297 308 307 309 298 296 307 285 287 288 290 301 310 317 326 331 331
283 286 287 287 285 286 288 290 292 292 292 296 297 298 299 298 295 297 297 297 297 305 297 303 303 298 289 280 275 281 285 290 299 308 314 324 328 328
283 286 287 288 288 287 286 287 291 293 296 297 298 296 294 292 291 290 291 294 294 296 291 294 298 294 292 266 275 276 282 286 300 306 310 320 324 328
283 284 285 287 287 288 288 290 293 294 296 297 296 294 292 291 288 284 282 285 287 284 289 285 293 294 273 260 268 276 276 285 298 300 307 314 324 323
281 282 283 285 286 287 290 294 295 297 298 298 298 295 294 295 293 289 284 281 276 290 282 274 285 277 254 263 270 272 271 282 294 296 302 314 319 319
282 283 284 285 286 294 298 301 300 301 301 299 293 291 290 289 289 288 281 283 263 282 260 269 260 253 266 270 259 262 268 283 290 292 302 310 314 316
283 285 286 289 295 299 301 299 300 302 302 298 290 286 286 286 288 288 283 270 261 271 258 237 241 250 266 262 266 265 275 281 285 291 300 305 310 314
282 285 287 293 297 300 300 302 303 304 306 294 297 296 291 291 289 285 268 263 274 249 248 268 254 242 247 249 255 264 273 277 279 285 295 302 306 315
284 288 292 296 300 298 301 304 311 305 299 305 303 309 301 273 269 259 250 240 235 234 251 274 235 226 233 241 250 260 267 269 274 285 293 298 306 312
286 288 292 297 293 296 298 305 307 304 303 310 312 320 334 277 269 220 221 224 229 238 269 222 214 222 234 240 245 257 264 266 271 282 289 298 304 309
Height
5947 5945 5944 5943 5942 5941 5940 5941 5939 5939 5938 5938 5936 5934 5933 5932 5930 5928 5926 5923 5920 5917 5915 5911 5909 5905 5901 5898 5896 5893 5889 5884 5880 5876 5871 5868 5864 5858
5945 5943 5942 5941 5939 5938 5938 5939 5939 5938 5937 5936 5936 5935 5931 5930 5929 5927 5925 5922 5917 5914 5912 5909 5906 5902 5898 5896 5891 5889 5884 5880 5876 5870 5866 5862 5858 5853
5943 5941 5940 5940 5938 5938 5937 5937 5937 5938 5937 5936 5934 5932 5933 5931 5929 5927 5926 5921 5916 5913 5910 5905 5903 5898 5895 5892 5888 5883 5879 5874 5870 5864 5860 5856 5852 5847
5940 5940 5939 5939 5938 5937 5937 5937 5936 5935 5935 5936 5936 5933 5930 5927 5925 5924 5922 5919 5915 5911 5908 5904 5900 5895 5892 5886 5882 5878 5873 5869 5864 5859 5853 5851 5844 5839
5938 5939 5937 5937 5938 5938 5936 5935 5934 5933 5933 5931 5931 5931 5930 5927 5922 5920 5916 5914 5915 5911 5907 5902 5897 5893 5888 5882 5878 5873 5869 5861 5859 5854 5849 5844 5837 5831
5936 5937 5937 5937 5936 5935 5936 5934 5933 5933 5931 5928 5926 5925 5924 5923 5920 5916 5913 5910 5907 5905 5901 5898 5894 5888 5884 5879 5875 5869 5862 5857 5853 5848 5841 5834 5829 5823
5936 5936 5935 5936 5936 5934 5932 5932 5932 5931 5929 5926 5924 5921 5917 5916 5916 5913 5910 5907 5903 5900 5898 5892 5886 5883 5879 5874 5870 5865 5859 5854 5848 5842 5836 5830 5824 5818
5934 5934 5934 5932 5931 5931 5930 5927 5924 5925 5925 5923 5920 5917 5913 5909 5908 5907 5904 5901 5899 5893 5889 5884 5880 5877 5872 5867 5861 5858 5856 5849 5844 5837 5831 5826 5821 5815
5930 5930 5930 5929 5928 5927 5926 5924 5921 5918 5917 5916 5915 5913 5909 5904 5902 5901 5898 5894 5889 5883 5879 5874 5869 5867 5864 5858 5855 5851 5848 5843 5837 5832 5827 5822 5817 5811
5926 5925 5925 5924 5923 5922 5921 5919 5916 5914 5911 5906 5905 5904 5901 5898 5894 5892 5889 5885 5879 5874 5867 5863 5858 5856 5856 5850 5846 5842 5841 5836 5831 5827 5822 5817 5812 5806
5920 5919 5919 5918 5917 5915 5914 5912 5909 5909 5906 5902 5897 5893 5888 5885 5885 5882 5879 5874 5870 5866 5861 5855 5848 5845 5843 5840 5834 5834 5833 5829 5825 5821 5816 5811 5806 5801
5911 5912 5912 5911 5910 5907 5904 5903 5902 5902 5896 5893 5889 5886 5885 5880 5872 5870 5865 5861 5858 5852 5844 5844 5839 5833 5831 5829 5824 5826 5825 5822 5819 5814 5809 5805 5800 5796
5904 5904 5903 5902 5900 5899 5896 5892 5894 5891 5887 5884 5882 5876 5871 5870 5864 5857 5853 5849 5845 5843 5836 5831 5829 5826 5824 5820 5817 5817 5817 5815 5810 5807 5804 5799 5795 5791
5896 5895 5894 5891 5889 5887 5885 5884 5882 5878 5875 5873 5870 5868 5861 5856 5852 5845 5840 5836 5834 5832 5826 5819 5817 5815 5814 5810 5809 5808 5809 5806 5802 5799 5796 5792 5787 5785
5886 5883 5881 5879 5878 5876 5874 5873 5870 5863 5860 5855 5855 5853 5850 5845 5837 5832 5829 5822 5819 5817 5814 5812 5806 5802 5803 5800 5800 5797 5797 5797 5793 5791 5788 5784 5780 5777
5872 5870 5869 5866 5864 5862 5859 5858 5855 5850 5844 5839 5836 5834 5830 5830 5824 5817 5813 5809 5801 5797 5795 5793 5791 5789 5790 5789 5791 5787 5788 5788 5786 5784 5780 5776 5773 5769
5861 5858 5856 5854 5851 5848 5844 5841 5840 5835 5827 5823 5815 5808 5802 5806 5807 5800 5794 5790 5789 5777 5779 5771 5778 5777 5778 5780 5779 5777 5779 5779 5777 5775 5772 5767 5764 5761
5848 5847 5844 5842 5838 5835 5831 5826 5823 5819 5814 5804 5796 5788 5778 5777 5779 5776 5771 5770 5768 5765 5763 5760 5759 5762 5767 5770 5768 5768 5769 5769 5768 5767 5764 5759 5755 5753
5833 5832 5830 5827 5823 5822 5816 5811 5804 5799 5796 5789 5779 5771 5761 5753 5754 5754 5751 5747 5744 5752 5748 5752 5758 5757 5758 5758 5759 5758 5759 5758 5758 5758 5756 5753 5749 5745
5818 5815 5812 5809 5808 5804 5799 5793 5787 5781 5776 5769 5762 5755 5743 5736 5727 5726 5725 5723 5709 5721 5738 5738 5742 5745 5746 5747 5747 5748 5748 5748 5750 5749 5747 5745 5742 5737
5805 5802 5798 5796 5793 5789 5782 5777 5771 5764 5756 5749 5743 5733 5723 5715 5706 5701 5693 5685 5700 5700 5708 5723 5730 5731 5734 5735 5737 5738 5739 5739 5741 5740 5739 5736 5732 5728
5788 5786 5783 5780 5776 5771 5765 5760 5755 5749 5742 5734 5725 5712 5698 5689 5679 5667 5667 5679 5678 5690 5700 5710 5715 5721 5724 5724 5728 5731 5732 5731 5731 5730 5729 5728 5726 5722
5774 5772 5769 5767 5761 5758 5753 5747 5740 5734 5728 5719 5710 5702 5691 5682 5677 5672 5673 5673 5676 5687 5692 5700 5706 5712 5713 5715 5718 5722 5723 5723 5722 5721 5719 5719 5718 5714